EW2244 Weather Reports


Display with metric or nautical units.
time (UTC)temp
F
wind
direction
speed
MPH
gust
MPH
rain 1hr
in
rain 24hr
in
rain mn
in
humidity
%
barometer
mb
20260901122136 81 27 0.0 5.0 0.00 0.00 0.00 64 1019.4
20260901121137 81 71 1.0 3.0 0.00 0.00 0.00 63 1019.5
20260901120138 81 71 0.0 4.0 0.00 0.00 0.00 60 1019.5
20260901115200 81 296 1.0 4.0 0.00 0.00 0.00 65 1019.6
20260901114145 80 102 2.0 6.0 0.00 0.00 0.00 63 1019.6
20260901113204 80 35 1.0 3.0 0.00 0.00 0.00 63 1019.7
20260901112125 81 34 1.0 4.0 0.00 0.00 0.00 61 1019.8
20260901111127 80 76 2.0 5.0 0.00 0.00 0.00 68 1019.9
20260901110133 81 42 2.0 4.0 0.00 0.00 0.00 62 1020.0
20260901105134 80 72 1.0 4.0 0.00 0.00 0.00 61 1019.9
20260901104135 80 88 2.0 5.0 0.00 0.00 0.00 62 1020.1
20260901103137 79 123 1.0 8.0 0.00 0.00 0.00 61 1020.1
20260901102143 80 40 2.0 8.0 0.00 0.00 0.00 58 1020.1
20260901101144 80 108 1.0 4.0 0.00 0.00 0.00 59 1020.1
20260901100144 79 114 1.0 5.0 0.00 0.00 0.00 56 1020.1
20260901095126 79 32 1.0 5.0 0.00 0.00 0.00 55 1020.2
20260901094132 79 32 3.0 4.0 0.00 0.00 0.00 49 1020.2
20260901093134 80 28 3.0 5.0 0.00 0.00 0.00 47 1020.3
20260901092158 80 13 3.0 5.0 0.00 0.00 0.00 47 1020.3
20260901091139 79 38 3.0 6.0 0.00 0.00 0.00 47 1020.2
20260901090139 79 38 2.0 6.0 0.00 0.00 0.00 49 1020.1
20260901085145 78 27 3.0 5.0 0.00 0.00 0.00 49 1020.1
20260901084129 77 29 1.0 4.0 0.00 0.00 0.00 51 1019.9
20260901083151 76 29 2.0 5.0 0.00 0.00 0.00 51 1019.8
20260901082131 75 34 1.0 5.0 0.00 0.00 0.00 53 1019.8
20260901081154 75 21 2.0 5.0 0.00 0.00 0.00 53 1019.8
20260901080139 75 351 1.0 4.0 0.00 0.00 0.00 56 1019.7
20260901075141 75 355 2.0 4.0 0.00 0.00 0.00 57 1019.6
20260901074141 75 30 1.0 5.0 0.00 0.00 0.00 52 1019.5
20260901073143 74 50 1.0 5.0 0.00 0.00 0.00 57 1019.6
20260901072129 73 38 2.0 6.0 0.00 0.00 0.00 54 1019.4
20260901071151 73 43 2.0 6.0 0.00 0.00 0.00 55 1019.3
20260901070132 72 349 1.0 3.0 0.00 0.00 0.00 54 1019.3
20260901065133 71 315 0.0 1.0 0.00 0.00 0.00 52 1019.2
20260901064138 71 277 0.0 3.0 0.00 0.00 0.00 53 1019.2
20260901063139 71 90 0.0 2.0 0.00 0.00 0.00 63 1019.1
20260901062143 70 90 1.0 2.0 0.00 0.00 0.00 56 1018.9
20260901061142 69 90 0.0 1.0 0.00 0.00 0.00 58 1018.9
20260901060205 69 90 0.0 1.0 0.00 0.00 0.00 66 1018.6
20260901055128 69 90 0.0 1.0 0.00 0.00 0.00 60 1018.5
20260901054130 68 90 0.0 2.0 0.00 0.00 0.00 60 1018.3
20260901053130 68 90 0.0 2.0 0.00 0.00 0.00 61 1018.2
20260901052130 68 90 0.0 4.0 0.00 0.00 0.00 58 1018.0
20260901051136 68 98 0.0 0.0 0.00 0.00 0.00 59 1017.9
20260901050136 68 98 0.0 1.0 0.00 0.00 0.00 57 1017.9
20260901045137 69 98 0.0 1.0 0.00 0.00 0.00 55 1017.6
20260901044138 71 98 0.0 3.0 0.00 0.00 0.00 52 1017.5
20260901043143 71 47 0.0 8.0 0.00 0.00 0.00 49 1017.3
20260901042145 71 134 1.0 7.0 0.00 0.00 0.00 48 1017.2
20260901041128 71 180 1.0 5.0 0.00 0.00 0.00 48 1017.0
20260901040127 71 17 2.0 9.0 0.00 0.00 0.00 48 1017.0
20260901035133 71 57 1.0 8.0 0.00 0.00 0.00 49 1016.8
20260901034135 71 53 1.0 3.0 0.00 0.00 0.00 49 1016.8
20260901033137 71 184 0.0 4.0 0.00 0.00 0.00 51 1016.8
20260901032139 71 360 1.0 4.0 0.00 0.00 0.00 52 1016.7
20260901031142 71 190 1.0 5.0 0.00 0.00 0.00 52 1016.7
20260901030148 72 340 2.0 6.0 0.00 0.00 0.00 50 1016.7
20260901025149 72 5 1.0 5.0 0.00 0.00 0.00 49 1016.7
20260901024131 72 285 1.0 4.0 0.00 0.00 0.00 48 1016.7
20260901023133 72 100 1.0 5.0 0.00 0.00 0.00 48 1016.7
20260901022140 72 171 1.0 3.0 0.00 0.00 0.00 48 1016.8
20260901021142 72 111 1.0 5.0 0.00 0.00 0.00 49 1016.7
20260901020205 72 62 1.0 7.0 0.00 0.00 0.00 49 1016.7
20260901015205 72 5 1.0 4.0 0.00 0.00 0.00 50 1016.7
20260901014145 72 10 0.0 6.0 0.00 0.00 0.00 50 1016.7
20260901013128 71 10 1.0 5.0 0.00 0.00 0.00 52 1016.8
20260901012132 71 59 0.0 3.0 0.00 0.00 0.00 53 1016.8
20260901011135 71 57 0.0 2.0 0.00 0.00 0.00 55 1016.7
20260901010140 72 55 0.0 2.0 0.00 0.00 0.00 55 1016.7
20260901005128 72 185 0.0 3.0 0.00 0.00 0.00 50 1016.7
20260901004152 72 11 1.0 4.0 0.00 0.00 0.00 49 1016.6
20260901003134 73 32 0.0 3.0 0.00 0.00 0.00 51 1016.6
20260901002158 74 313 2.0 7.0 0.00 0.00 0.00 46 1016.5
20260901001141 74 295 2.0 10.0 0.00 0.00 0.00 45 1016.6
20260901000130 73 143 2.0 8.0 0.00 0.00 0.00 49 1016.5
20260831235133 73 346 2.0 8.0 0.00 0.00 0.00 48 1016.6
20260831234137 73 33 1.0 6.0 0.00 0.00 0.00 51 1016.6
20260831233141 73 24 0.0 2.0 0.00 0.00 0.00 55 1016.6
20260831232128 73 12 0.0 9.0 0.00 0.00 0.00 55 1016.5
20260831231132 74 348 0.0 4.0 0.00 0.00 0.00 54 1016.4
20260831230136 74 178 0.0 4.0 0.00 0.00 0.00 53 1016.3
20260831225139 74 93 1.0 2.0 0.00 0.00 0.00 54 1016.4
20260831224205 74 17 1.0 4.0 0.00 0.00 0.00 56 1016.4
20260831223145 74 5 1.0 5.0 0.00 0.00 0.00 60 1016.4
20260831222148 74 117 0.0 4.0 0.00 0.00 0.00 59 1016.3
20260831221131 74 90 1.0 4.0 0.00 0.00 0.00 61 1016.3
20260831220133 74 24 1.0 7.0 0.00 0.00 0.00 63 1016.2
20260831215125 73 275 1.0 4.0 0.00 0.00 0.00 68 1016.2
20260831214130 74 263 1.0 4.0 0.00 0.00 0.00 70 1016.2
20260831213137 73 49 1.0 3.0 0.00 0.00 0.00 69 1016.3
20260831212125 74 259 0.0 3.0 0.00 0.00 0.00 72 1016.2
20260831211132 74 327 1.0 4.0 0.00 0.00 0.00 72 1016.3
20260831210158 74 5 0.0 6.0 0.00 0.00 0.00 71 1016.3
20260831205141 74 232 1.0 3.0 0.00 0.00 0.00 71 1016.2
20260831204127 74 300 1.0 4.0 0.00 0.00 0.00 71 1016.1
20260831203137 75 45 1.0 5.0 0.00 0.00 0.00 70 1016.0
20260831202145 74 9 1.0 4.0 0.00 0.00 0.00 71 1015.9
20260831201128 73 327 0.0 2.0 0.00 0.00 0.00 74 1015.9
20260831200135 74 241 1.0 3.0 0.00 0.00 0.00 74 1015.8
20260831195123 75 244 0.0 1.0 0.00 0.00 0.00 71 1015.7
20260831194128 74 196 0.0 3.0 0.00 0.00 0.00 71 1015.8
20260831193130 74 167 0.0 2.0 0.00 0.00 0.00 73 1015.6
20260831192135 75 167 1.0 3.0 0.00 0.00 0.00 72 1015.5
20260831191125 76 146 1.0 2.0 0.00 0.00 0.00 68 1015.4
20260831190127 77 150 1.0 3.0 0.00 0.00 0.00 67 1015.3
20260831185133 77 109 1.0 3.0 0.00 0.00 0.00 67 1015.2
20260831184136 76 132 1.0 3.0 0.00 0.00 0.00 67 1015.0
20260831183145 76 168 0.0 1.0 0.00 0.00 0.00 70 1014.9
20260831182132 76 168 0.0 3.0 0.00 0.00 0.00 72 1014.8
20260831181139 76 168 0.0 1.0 0.00 0.00 0.00 71 1014.7
20260831180126 78 168 0.0 1.0 0.00 0.00 0.00 71 1014.7
20260831175135 78 168 0.0 1.0 0.00 0.00 0.00 66 1014.6
20260831174123 79 168 1.0 2.0 0.00 0.00 0.00 67 1014.6
20260831173130 80 168 0.0 1.0 0.00 0.00 0.00 62 1014.6
20260831172138 81 168 0.0 1.0 0.00 0.00 0.00 63 1014.7
20260831171128 82 168 1.0 2.0 0.00 0.00 0.00 62 1014.5
20260831170134 84 168 0.0 1.0 0.00 0.00 0.00 57 1014.6
20260831165201 85 168 0.0 1.0 0.00 0.00 0.00 54 1014.6
20260831164127 85 168 0.0 1.0 0.00 0.00 0.00 52 1014.7
20260831163159 86 168 0.0 1.0 0.00 0.00 0.00 49 1014.6
20260831162126 86 168 0.0 1.0 0.00 0.00 0.00 48 1014.6
20260831161133 87 168 0.0 1.0 0.00 0.00 0.00 47 1014.7
20260831160139 87 168 0.0 2.0 0.00 0.00 0.00 44 1014.7
20260831155129 87 169 0.0 3.0 0.00 0.00 0.00 44 1014.8
20260831154136 87 138 0.0 3.0 0.00 0.00 0.00 48 1014.9
20260831153140 87 62 0.0 4.0 0.00 0.00 0.00 45 1014.8
20260831152127 86 139 2.0 6.0 0.00 0.00 0.00 46 1014.9
20260831151137 86 221 2.0 4.0 0.00 0.00 0.00 47 1015.0
20260831150124 86 192 0.0 4.0 0.00 0.00 0.00 47 1015.0
20260831145130 86 140 1.0 4.0 0.00 0.00 0.00 48 1014.9
20260831144137 86 40 1.0 4.0 0.00 0.00 0.00 51 1015.0
20260831143149 86 78 2.0 4.0 0.00 0.00 0.00 49 1015.1
20260831142133 87 130 1.0 2.0 0.00 0.00 0.00 51 1015.1
20260831141138 86 88 0.0 3.0 0.00 0.00 0.00 53 1015.0
20260831140124 87 107 2.0 6.0 0.00 0.00 0.00 51 1015.0
20260831135135 87 63 1.0 4.0 0.00 0.00 0.00 50 1015.1
20260831134139 86 65 2.0 5.0 0.00 0.00 0.00 50 1015.1
20260831133203 86 196 1.0 4.0 0.00 0.00 0.00 49 1015.2
20260831132145 87 94 2.0 3.0 0.00 0.00 0.00 48 1015.3
20260831131130 86 67 1.0 6.0 0.00 0.00 0.00 50 1015.3
20260831130140 86 42 2.0 6.0 0.00 0.00 0.00 55 1015.4
20260831125128 86 25 2.0 6.0 0.00 0.00 0.00 54 1015.5
20260831124134 86 59 1.0 4.0 0.00 0.00 0.00 56 1015.5
20260831123125 85 103 1.0 6.0 0.00 0.00 0.00 48 1015.5